TimeGMT,TemperatureF,Dew PointF,Humidity,Sea Level PressureIn,VisibilityMPH,Wind Direction,Wind SpeedMPH,Gust SpeedMPH,PrecipitationIn,Events,Conditions,WindDirDegrees,DateUTC
2:50 AM,50,50,98,29.55,4,South,13.8,,,Rain,Light Drizzle,170,2012-12-24 02:50:00
5:50 AM,51,50,95,29.45,5,SW,5.8,,,Rain,Light Rain,230,2012-12-24 05:50:00
8:20 AM,50.0,48.2,94,29.42,5.6,West,13.8,-,N/A,Rain,Light Rain,280,2012-12-24 08:20:00
8:50 AM,49,49,99,29.44,8,West,12.7,,,Rain,Light Drizzle,270,2012-12-24 08:50:00
8:50 AM,50.0,50.0,100,29.44,5.6,West,12.7,-,N/A,Rain,Light Rain,270,2012-12-24 08:50:00
9:20 AM,50.0,48.2,94,29.42,6.2,West,10.4,-,N/A,,Scattered Clouds,270,2012-12-24 09:20:00
9:50 AM,50.0,48.2,94,29.44,6.2,WSW,13.8,-,N/A,,Scattered Clouds,250,2012-12-24 09:50:00
10:20 AM,50.0,48.2,94,29.44,6.2,WSW,13.8,-,N/A,,Scattered Clouds,240,2012-12-24 10:20:00
10:50 AM,50.0,48.2,94,29.44,6.2,SW,17.3,-,N/A,,Partly Cloudy,230,2012-12-24 10:50:00
11:20 AM,51.8,48.2,88,29.44,6.2,SW,21.9,-,N/A,,Partly Cloudy,220,2012-12-24 11:20:00
11:50 AM,51,48,84,29.45,12,SW,21.9,,,,Scattered Clouds,230,2012-12-24 11:50:00
11:50 AM,51.8,48.2,88,29.44,6.2,SW,21.9,-,N/A,,Partly Cloudy,230,2012-12-24 11:50:00
12:20 PM,51.8,48.2,88,29.44,6.2,SW,21.9,-,N/A,,Partly Cloudy,230,2012-12-24 12:20:00
12:50 PM,51.8,48.2,88,29.42,6.2,SW,21.9,-,N/A,Rain,Light Rain Showers,230,2012-12-24 12:50:00
1:20 PM,51.8,48.2,88,29.42,6.2,SW,21.9,-,N/A,,Partly Cloudy,230,2012-12-24 13:20:00
1:50 PM,51.8,46.4,82,29.42,6.2,WSW,23.0,-,N/A,,Partly Cloudy,240,2012-12-24 13:50:00
2:20 PM,51.8,48.2,88,29.42,6.2,WSW,24.2,-,N/A,,Scattered Clouds,240,2012-12-24 14:20:00
2:50 PM,51,47,83,29.42,11,SW,21.9,,,,Scattered Clouds,230,2012-12-24 14:50:00
2:50 PM,51.8,48.2,88,29.42,6.2,SW,20.7,-,N/A,,Partly Cloudy,230,2012-12-24 14:50:00
3:20 PM,51.8,48.2,88,29.42,6.2,SW,19.6,-,N/A,,Partly Cloudy,230,2012-12-24 15:20:00
5:50 PM,51,47,80,29.41,12,SW,20.7,,,,Partly Cloudy,220,2012-12-24 17:50:00
8:50 PM,51,45,74,29.37,12,SSW,26.5,,,,Scattered Clouds,210,2012-12-24 20:50:00
11:50 PM,50,44,74,29.31,4,SSW,35.7,,,,Light Haze,210,2012-12-24 23:50:00